This demonstration page uses our WeatherBlox Daily Observations layout. Learn more.

39.29038, -76.61219

Hourly Observations for July 24, 2019

Temp ( °F °C ) Dew Point ( °F °C ) Humidity (%) Winds ( mph kmh ) Pressure ( in mb ) Visibility ( mi km ) Precip ( " mm )
12:54 am 00:54 undefined 73 22.8 64 17.8 74 74 undefined N/A 29.89 1012 N/A 0 0
1:54 am 01:54 undefined 72 22.2 64 17.8 76 76 undefined N/A 29.88 1012 N/A 0 0
3:54 am 03:54 undefined 70 21.1 64 17.8 82 82 undefined N/A 29.89 1012 N/A 0 0
4:54 am 04:54 undefined 70 21.1 63 17.2 79 79 undefined N/A 29.92 1013 N/A 0 0
5:54 am 05:54 undefined 70 21.1 60 15.6 71 71 undefined N/A 29.94 1014 N/A 0 0
6:54 am 06:54 undefined 70 21.1 60 15.6 71 71 undefined N/A 29.96 1014 N/A 0 0
7:54 am 07:54 undefined 74 23.3 62 16.7 67 67 undefined N/A 29.99 1016 N/A 0 0
8:54 am 08:54 undefined 75 23.9 62 16.7 64 64 undefined N/A 29.99 1016 N/A 0 0
9:54 am 09:54 undefined 78 25.6 64 17.8 62 62 undefined N/A 30 1016 N/A 0 0
10:54 am 10:54 undefined 80 26.7 60 15.6 51 51 undefined N/A 30 1016 N/A 0 0
11:54 am 11:54 undefined 83 28.3 60 15.6 46 46 undefined N/A 29.99 1016 N/A 0 0
12:54 pm 12:54 undefined 83 28.3 56 13.3 40 40 undefined N/A 29.98 1015 N/A 0 0
2:54 pm 14:54 undefined 85 29.4 56 13.3 37 37 undefined N/A 29.95 1014 N/A 0 0
3:54 pm 15:54 undefined 86 30 59 15 40 40 undefined N/A 29.96 1015 N/A 0 0
4:54 pm 16:54 undefined 83 28.3 57 13.9 41 41 undefined N/A 29.96 1015 N/A 0 0
5:54 pm 17:54 undefined 83 28.3 56 13.3 40 40 undefined N/A 29.96 1015 N/A 0 0
6:54 pm 18:54 undefined 82 27.8 57 13.9 42 42 undefined N/A 29.97 1015 N/A 0 0
7:54 pm 19:54 undefined 81 27.2 56 13.3 42 42 undefined N/A 29.99 1016 N/A 0 0
8:54 pm 20:54 undefined 79 26.1 58 14.4 49 49 undefined N/A 30.01 1016 N/A 0 0
9:54 pm 21:54 undefined 77 25 62 16.7 60 60 undefined N/A 30.02 1017 N/A 0 0
10:54 pm 22:54 undefined 76 24.4 58 14.4 54 54 undefined N/A 30.03 1017 N/A 0 0
11:54 pm 23:54 undefined 75 23.9 58 14.4 55 55 undefined N/A 30.03 1017 N/A 0 0

Powered by AerisWeather